When you browse on this site, cookies collect data to enhance your experience and personalize the content and advertising you see.
Visit our Privacy Policy to learn more. By continuing to use the site, you agree to this use of cookies and data.
  • în România
  • Lista ţărilor
  • Pe 7 zile
  • Temperatura apei
  • Hartă satelitară
  • Meteo pe hartă
  • Widget-uri
  • user-avatar
    Intrare

    Meteo pe oră la Hangal

    Astăzi, 25 Aprilie, Joi

    Timp Temperatura Precipitaţii Vânt Presiune Umiditate
    00:00 +29°C° 0 mm 2 m/s 709 mmHg 62%
    01:00 +29°C° 0 mm 2 m/s 709 mmHg 67%
    02:00 +28°C° 0 mm 1 m/s 708 mmHg 73%
    03:00 +28°C° 0 mm 1 m/s 708 mmHg 73%
    04:00 +27°C° 0 mm 1 m/s 708 mmHg 74%
    05:00 +27°C° 0 mm 1 m/s 709 mmHg 74%
    06:00 +28°C° 0 mm 1 m/s 709 mmHg 67%
    07:00 +30°C° 0 mm 1 m/s 710 mmHg 60%
    08:00 +31°C° 0 mm 1 m/s 710 mmHg 52%
    09:00 +34°C° 0 mm 1 m/s 711 mmHg 42%
    10:00 +37°C° 0 mm 1 m/s 711 mmHg 32%
    11:00 +41°C° 0 mm 1 m/s 711 mmHg 22%
    12:00 +42°C° 0 mm 2 m/s 710 mmHg 19%
    13:00 +43°C° 0 mm 3 m/s 710 mmHg 16%
    14:00 +44°C° 0 mm 4 m/s 709 mmHg 12%
    15:00 +44°C° 0 mm 4 m/s 709 mmHg 12%
    16:00 +43°C° 0 mm 4 m/s 708 mmHg 12%
    17:00 +43°C° 0 mm 4 m/s 708 mmHg 12%
    18:00 +40°C° 0 mm 4 m/s 708 mmHg 24%
    19:00 +36°C° 0 mm 4 m/s 708 mmHg 36%
    20:00 +34°C° 0 mm 5 m/s 708 mmHg 49%
    21:00 +33°C° 0 mm 4 m/s 709 mmHg 55%
    22:00 +30°C° 0 mm 4 m/s 709 mmHg 62%
    23:00 +29°C° 0 mm 3 m/s 709 mmHg 68%

    Mâine, 26 Aprilie, Vineri

    Timp Temperatura Precipitaţii Vânt Presiune Umiditate
    00:00 +29°C° 0 mm 3 m/s 708 mmHg 69%
    01:00 +28°C° 0 mm 3 m/s 708 mmHg 70%
    02:00 +28°C° 0 mm 3 m/s 708 mmHg 71%
    03:00 +27°C° 0 mm 3 m/s 707 mmHg 74%
    04:00 +27°C° 0 mm 3 m/s 707 mmHg 76%
    05:00 +26°C° 0 mm 3 m/s 707 mmHg 79%
    06:00 +28°C° 0 mm 3 m/s 708 mmHg 73%
    07:00 +29°C° 0 mm 2 m/s 709 mmHg 67%
    08:00 +30°C° 0 mm 2 m/s 709 mmHg 60%
    09:00 +34°C° 0 mm 3 m/s 710 mmHg 49%
    10:00 +36°C° 0 mm 3 m/s 710 mmHg 38%
    11:00 +39°C° 0 mm 3 m/s 710 mmHg 27%
    12:00 +41°C° 0 mm 2 m/s 709 mmHg 24%
    13:00 +42°C° 0 mm 2 m/s 709 mmHg 20%
    14:00 +43°C° 0 mm 1 m/s 708 mmHg 17%
    15:00 +42°C° 0 mm 1 m/s 708 mmHg 18%
    16:00 +41°C° 0 mm 2 m/s 708 mmHg 20%
    17:00 +40°C° 0 mm 2 m/s 707 mmHg 22%
    18:00 +37°C° 0 mm 3 m/s 708 mmHg 37%
    19:00 +34°C° 0 mm 4 m/s 708 mmHg 53%
    20:00 +32°C° 0 mm 4 m/s 708 mmHg 68%
    21:00 +30°C° 0 mm 4 m/s 708 mmHg 70%
    22:00 +29°C° 0 mm 3 m/s 708 mmHg 71%
    23:00 +29°C° 0 mm 3 m/s 709 mmHg 73%

    Poimâine, 27 Aprilie, Sâmbătă

    Timp Temperatura Precipitaţii Vânt Presiune Umiditate
    00:00 +28°C° 0 mm 3 m/s 708 mmHg 74%
    01:00 +28°C° 0 mm 3 m/s 708 mmHg 75%
    02:00 +28°C° 0 mm 3 m/s 707 mmHg 75%
    03:00 +27°C° 0 mm 2 m/s 707 mmHg 76%
    04:00 +27°C° 0 mm 2 m/s 707 mmHg 77%
    05:00 +26°C° 0 mm 2 m/s 707 mmHg 78%
    06:00 +28°C° 0 mm 2 m/s 708 mmHg 72%
    07:00 +29°C° 0 mm 2 m/s 708 mmHg 66%
    08:00 +30°C° 0 mm 2 m/s 709 mmHg 60%
    09:00 +34°C° 0 mm 2 m/s 709 mmHg 50%
    10:00 +36°C° 0 mm 2 m/s 709 mmHg 40%
    11:00 +39°C° 0 mm 2 m/s 709 mmHg 30%
    12:00 +40°C° 0 mm 2 m/s 709 mmHg 26%
    13:00 +41°C° 0 mm 2 m/s 708 mmHg 22%
    14:00 +43°C° 0 mm 2 m/s 707 mmHg 18%
    15:00 +41°C° 0 mm 2 m/s 707 mmHg 22%
    16:00 +40°C° 0 mm 2 m/s 707 mmHg 25%
    17:00 +39°C° 0 mm 2 m/s 706 mmHg 29%
    18:00 +37°C° 0 mm 3 m/s 707 mmHg 44%
    19:00 +34°C° 0 mm 3 m/s 707 mmHg 59%
    20:00 +30°C° 0 mm 4 m/s 707 mmHg 75%
    21:00 +30°C° 0 mm 4 m/s 707 mmHg 74%
    22:00 +29°C° 0 mm 4 m/s 708 mmHg 74%
    23:00 +29°C° 0 mm 4 m/s 708 mmHg 73%

    28 Aprilie, Duminică

    Timp Temperatura Precipitaţii Vânt Presiune Umiditate
    00:00 +28°C° 0 mm 3 m/s 707 mmHg 76%
    01:00 +28°C° 0 mm 3 m/s 706 mmHg 79%
    02:00 +27°C° 0 mm 2 m/s 706 mmHg 83%
    03:00 +27°C° 0 mm 2 m/s 706 mmHg 82%
    04:00 +27°C° 0 mm 2 m/s 706 mmHg 81%
    05:00 +27°C° 0 mm 1 m/s 706 mmHg 81%
    06:00 +29°C° 0 mm 2 m/s 707 mmHg 71%
    07:00 +30°C° 0 mm 2 m/s 707 mmHg 62%
    08:00 +32°C° 0 mm 2 m/s 708 mmHg 53%
    09:00 +35°C° 0 mm 2 m/s 708 mmHg 44%
    10:00 +38°C° 0 mm 3 m/s 708 mmHg 34%
    11:00 +42°C° 0 mm 3 m/s 709 mmHg 25%
    12:00 +42°C° 0 mm 2 m/s 708 mmHg 22%
    13:00 +43°C° 0 mm 2 m/s 707 mmHg 20%
    14:00 +45°C° 0 mm 2 m/s 706 mmHg 18%
    15:00 +41°C° 0 mm 2 m/s 706 mmHg 26%
    16:00 +39°C° 0 mm 3 m/s 706 mmHg 34%
    17:00 +37°C° 0 mm 4 m/s 705 mmHg 42%
    18:00 +35°C° 0 mm 4 m/s 706 mmHg 50%
    19:00 +34°C° 0 mm 3 m/s 706 mmHg 58%
    20:00 +31°C° 0 mm 3 m/s 707 mmHg 66%
    21:00 +30°C° 0 mm 3 m/s 707 mmHg 68%
    22:00 +30°C° 0 mm 3 m/s 707 mmHg 71%
    23:00 +29°C° 0 mm 3 m/s 707 mmHg 73%

    29 Aprilie, Luni

    Timp Temperatura Precipitaţii Vânt Presiune Umiditate
    00:00 +28°C° 0 mm 3 m/s 706 mmHg 77%
    01:00 +28°C° 0 mm 3 m/s 706 mmHg 80%
    02:00 +27°C° 0 mm 2 m/s 705 mmHg 83%
    03:00 +27°C° 0 mm 2 m/s 706 mmHg 85%
    04:00 +27°C° 0 mm 2 m/s 706 mmHg 86%
    05:00 +26°C° 0 mm 2 m/s 706 mmHg 88%
    06:00 +28°C° 0 mm 2 m/s 707 mmHg 81%
    07:00 +29°C° 0 mm 2 m/s 708 mmHg 74%
    08:00 +30°C° 0 mm 3 m/s 709 mmHg 67%
    09:00 +34°C° 0 mm 3 m/s 709 mmHg 56%
    10:00 +36°C° 0 mm 3 m/s 709 mmHg 46%
    11:00 +39°C° 0 mm 3 m/s 709 mmHg 36%
    12:00 +40°C° 0 mm 2 m/s 708 mmHg 32%
    13:00 +41°C° 0 mm 2 m/s 707 mmHg 29%
    14:00 +42°C° 0 mm 2 m/s 706 mmHg 26%
    15:00 +39°C° 1.6 mm 3 m/s 706 mmHg 37%
    16:00 +37°C° 1.6 mm 4 m/s 706 mmHg 49%
    17:00 +34°C° 1.6 mm 6 m/s 705 mmHg 60%
    18:00 +33°C° 0.4 mm 6 m/s 706 mmHg 66%
    19:00 +30°C° 0.4 mm 5 m/s 706 mmHg 72%
    20:00 +29°C° 0.4 mm 5 m/s 707 mmHg 78%
    21:00 +29°C° 0 mm 5 m/s 707 mmHg 80%
    22:00 +28°C° 0 mm 4 m/s 707 mmHg 82%
    23:00 +28°C° 0 mm 3 m/s 707 mmHg 84%

    30 Aprilie, Marţi

    Timp Temperatura Precipitaţii Vânt Presiune Umiditate
    00:00 +28°C° 1.1 mm 3 m/s 707 mmHg 84%
    01:00 +28°C° 1.1 mm 3 m/s 706 mmHg 83%
    02:00 +28°C° 1.1 mm 3 m/s 706 mmHg 82%
    03:00 +28°C° 0 mm 3 m/s 706 mmHg 84%
    04:00 +27°C° 0 mm 2 m/s 706 mmHg 86%
    05:00 +27°C° 0 mm 2 m/s 706 mmHg 87%
    06:00 +28°C° 0 mm 2 m/s 707 mmHg 84%
    07:00 +28°C° 0 mm 3 m/s 707 mmHg 81%
    08:00 +29°C° 0 mm 3 m/s 708 mmHg 77%
    09:00 +31°C° 0 mm 3 m/s 708 mmHg 68%
    10:00 +34°C° 0 mm 3 m/s 708 mmHg 58%
    11:00 +36°C° 0 mm 3 m/s 708 mmHg 48%
    12:00 +37°C° 0 mm 2 m/s 707 mmHg 44%
    13:00 +38°C° 0 mm 2 m/s 707 mmHg 39%
    14:00 +39°C° 0 mm 2 m/s 706 mmHg 34%
    15:00 +37°C° 0.4 mm 3 m/s 705 mmHg 46%
    16:00 +34°C° 0.4 mm 5 m/s 705 mmHg 58%
    17:00 +32°C° 0.4 mm 6 m/s 705 mmHg 71%
    18:00 +30°C° 0 mm 6 m/s 705 mmHg 73%
    19:00 +29°C° 0 mm 5 m/s 706 mmHg 76%
    20:00 +29°C° 0 mm 5 m/s 706 mmHg 79%
    21:00 +28°C° 0 mm 4 m/s 706 mmHg 81%
    22:00 +28°C° 0 mm 4 m/s 707 mmHg 83%
    23:00 +27°C° 0 mm 4 m/s 707 mmHg 86%
    Arată mai mult